User: anonymous   Login
Location: Unspecified
(0.0000°N, 0.0000°E)
Time: 16:40:42
(UTC+00:00)
Language:

TERCEL - Orbit

View from above orbital plane
View from above orbital plane
View from above satellite
View from above satellite

Ground track
Ground track

The orbit data is extracted from the following two-line orbital elements,

1 20547U 90028B   17087.95132392 +.00000632 +00000-0 +24650-4 0  9996
2 20547 094.0961 085.0798 0083782 198.5428 161.2760 15.23787339487506
Epoch (UTC): 28 March 2017 22:49:54
Eccentricity: 0.0083782
inclination: 94.0961°
perigee height: 437 km
apogee height: 552 km
right ascension of ascending node: 85.0798°
argument of perigee: 198.5428°
revolutions per day: 15.23787339
mean anomaly at epoch: 161.2760°
orbit number at epoch: 48750

The dashed part of the orbit path shows where the satellite is in the earth's shadow,  

DLR